Concord, NC

10:39 PM EST on January 18, 2017 (GMT -0500)
Concord Regional

Weather History for KJQF - October, 2012

Change the Weather History Date:

Thursday, October 18, 2012

  Actual Average (KCLT) Record (KCLT)
Temperature  
Mean Temperature 62 °F -  
Max Temperature 77 °F 70 °F 87 °F (1938)
Min Temperature 46 °F 48 °F 31 °F (2001)
Degree Days  
Heating Degree Days 4    
Growing Degree Days 12 (Base 50)    
Moisture  
Dew Point 52 °F    
Average Humidity 85    
Maximum Humidity 100    
Minimum Humidity 47    
Precipitation  
Precipitation 0.00 in - - ()
Sea Level Pressure  
Sea Level Pressure 29.90 in    
Wind  
Wind Speed 1 mph (SSW)    
Max Wind Speed 9 mph    
Max Gust Speed -    
Visibility 7 miles    
Events      
Averages and records for this station are not official NWS values.
T = Trace of Precipitation, MM = Missing Value Source: NWS Daily Summary

Daily Weather History Graph

Daily Weather History Graph

Search for Another Location

Airport or City:

Trip Planner

Search our weather history database for the weather conditions in past years. The results will help you decide how hot, cold, wet, or windy it might be!

Date:

Astronomy

Oct. 18, 2012 Rise Set
Actual Time 7:32 AM EDT 6:43 PM EDT
Civil Twilight 7:06 AM EDT 7:08 PM EDT
Nautical Twilight 6:36 AM EDT 7:38 PM EDT
Astronomical Twilight 6:07 AM EDT 8:07 PM EDT
Moon 11:04 AM EDT (10/18) 9:23 PM EDT (10/18)
Length of Visible Light 12h 02m
Length of Day
11h 11m
Waxing Crescent, 14% of the Moon is Illuminated
Oct 18
Waxing Crescent
Oct 21
First Quarter
Oct 29
Full
Nov 6
Last Quarter
Nov 13
New

Hourly Weather History & Observations

Time (EDT) Temp. Dew Point Humidity Pressure Visibility Wind Dir Wind Speed Gust Speed Precip Events Conditions
12:15 AM 53.6 °F 48.2 °F 82% 29.96 in 10.0 mi Calm Calm - N/A   Clear
12:35 AM 51.8 °F 46.4 °F 82% 29.95 in 10.0 mi Calm Calm - N/A   Clear
12:55 AM 51.8 °F 48.2 °F 88% 29.94 in 10.0 mi Calm Calm - N/A   Clear
1:15 AM 51.8 °F 46.4 °F 82% 29.94 in 10.0 mi Calm Calm - N/A   Clear
1:35 AM 51.8 °F 48.2 °F 88% 29.94 in 10.0 mi Calm Calm - N/A   Clear
1:55 AM 50.0 °F 46.4 °F 87% 29.95 in 10.0 mi Calm Calm - N/A   Clear
2:15 AM 50.0 °F 46.4 °F 87% 29.94 in 10.0 mi Calm Calm - N/A   Clear
2:35 AM 50.0 °F 46.4 °F 87% 29.94 in 10.0 mi Calm Calm - N/A   Clear
2:55 AM 50.0 °F 46.4 °F 87% 29.95 in 10.0 mi Calm Calm - N/A   Clear
3:15 AM 48.2 °F 46.4 °F 93% 29.94 in 5.0 mi Calm Calm - N/A   Clear
3:35 AM 48.2 °F 46.4 °F 93% 29.93 in 5.0 mi Calm Calm - N/A   Clear
3:55 AM 46.4 °F 46.4 °F 100% 29.94 in 4.0 mi Calm Calm - N/A   Clear
4:15 AM 46.4 °F 44.6 °F 93% 29.94 in 1.8 mi Calm Calm - N/A   Unknown
4:35 AM 46.4 °F 44.6 °F 93% 29.94 in 3.0 mi Calm Calm - N/A   Clear
4:55 AM 46.4 °F 44.6 °F 93% 29.94 in 2.5 mi Calm Calm - N/A   Clear
5:15 AM 46.4 °F 44.6 °F 93% 29.93 in 3.0 mi Calm Calm - N/A   Clear
5:35 AM 46.4 °F 46.4 °F 100% 29.94 in 3.0 mi Calm Calm - N/A   Clear
5:55 AM 46.4 °F 44.6 °F 93% 29.94 in 3.0 mi Calm Calm - N/A   Clear
6:15 AM 46.4 °F 44.6 °F 93% 29.94 in 3.0 mi Calm Calm - N/A   Clear
6:35 AM 46.4 °F 46.4 °F 100% 29.94 in 2.5 mi Calm Calm - N/A   Clear
6:55 AM 50.0 °F 48.2 °F 94% 29.94 in 5.0 mi Calm Calm - N/A   Clear
7:15 AM 48.2 °F 46.4 °F 93% 29.93 in 2.5 mi Calm Calm - N/A   Clear
7:35 AM 50.0 °F 48.2 °F 94% 29.93 in 4.0 mi Calm Calm - N/A   Clear
7:55 AM 50.0 °F 48.2 °F 94% 29.93 in 7.0 mi Calm Calm - N/A   Scattered Clouds
8:55 AM 51.8 °F 51.8 °F 100% 29.95 in 7.0 mi Calm Calm - N/A   Scattered Clouds
9:55 AM 57.2 °F 53.6 °F 88% 29.94 in 7.0 mi Calm Calm - N/A   Scattered Clouds
10:55 AM 60.8 °F 55.4 °F 82% 29.91 in 7.0 mi ESE 4.6 mph - N/A   Partly Cloudy
11:50 AM 68.0 °F 57.2 °F 68% 29.89 in 10.0 mi SE 4.6 mph - N/A   Clear
12:55 PM 71.6 °F 59.0 °F 64% 29.89 in 10.0 mi South 6.9 mph - N/A   Mostly Cloudy
1:55 PM 75.2 °F 57.2 °F 53% 29.86 in 10.0 mi SSW 9.2 mph - N/A   Mostly Cloudy
2:55 PM 77.0 °F 55.4 °F 47% 29.83 in 10.0 mi SSW 8.1 mph - N/A   Mostly Cloudy
3:55 PM 75.2 °F 55.4 °F 50% 29.82 in 10.0 mi SSW 8.1 mph - N/A   Mostly Cloudy
4:55 PM 75.2 °F 55.4 °F 50% 29.82 in 10.0 mi WSW 3.5 mph - N/A   Overcast
5:55 PM 73.4 °F 55.4 °F 53% 29.82 in 10.0 mi WSW 3.5 mph - N/A   Mostly Cloudy
6:55 PM 66.2 °F 59.0 °F 78% 29.84 in 10.0 mi Calm Calm - N/A   Mostly Cloudy
7:55 PM 66.2 °F 59.0 °F 78% 29.84 in 10.0 mi Calm Calm - N/A   Mostly Cloudy
8:55 PM 64.4 °F 59.0 °F 83% 29.83 in 10.0 mi Calm Calm - N/A   Mostly Cloudy
9:15 PM 66.2 °F 59.0 °F 78% 29.83 in 10.0 mi Calm Calm - N/A   Scattered Clouds
9:35 PM 62.6 °F 59.0 °F 88% 29.84 in 10.0 mi Calm Calm - N/A   Scattered Clouds
9:55 PM 64.4 °F 59.0 °F 83% 29.85 in 10.0 mi Calm Calm - N/A   Overcast
10:15 PM 64.4 °F 59.0 °F 83% 29.84 in 10.0 mi Calm Calm - N/A   Overcast
10:35 PM 62.6 °F 60.8 °F 94% 29.84 in 5.0 mi Calm Calm - N/A   Overcast
10:55 PM 60.8 °F 59.0 °F 94% 29.83 in 3.0 mi Calm Calm - N/A   Mostly Cloudy
11:15 PM 60.8 °F 59.0 °F 94% 29.82 in 5.0 mi Calm Calm - N/A   Mostly Cloudy
11:35 PM 60.8 °F 60.8 °F 100% 29.82 in 7.0 mi Calm Calm - N/A   Overcast
11:55 PM 60.8 °F 59.0 °F 94% 29.81 in 7.0 mi Calm Calm - N/A   Overcast